Location: Ireland
(44.1595°N, 71.8934°W)
Time: 19:37:08
(UTC+00:00)

Daily predictions for brighter satellites

Satellite Brightness Start Highest point End
(mag) Time Altitude Azimuth Time Altitude Azimuth Time Altitude Azimuth
Tsikada Rocket 4.1 23:23:10 10° N 23:29:25 64° E 23:35:42 10° SSE
COSMO-SKYMED 1 3.9 23:26:23 10° N 23:30:34 47° WNW 23:34:43 10° SW
Meteor 1-18 Rocket 4.5 23:24:49 10° N 23:30:39 55° ENE 23:36:21 10° SSE
GEOS 3 Rocket 4.1 23:26:47 10° ESE 23:31:44 45° NE 23:36:39 10° NNW
Cosmos 1766 Rocket 4.5 23:28:40 10° SSE 23:32:20 27° E 23:36:02 10° NNE
Cosmos 2219 Rocket 2.3 23:26:55 10° SSW 23:32:36 89° ESE 23:38:19 10° NNE
NOSS 2-1 (D) 4.4 23:34:17 10° NNW 23:37:43 32° NE 23:42:13 10° ESE
ADEOS 3.7 23:32:49 10° SSE 23:37:54 56° ENE 23:43:00 10° N
YAOGAN 1 2.8 23:34:21 10° S 23:38:37 73° W 23:42:55 10° NNW
TRACE 4.3 23:37:53 10° NNE 23:41:19 77° ESE 23:44:39 10° S
DMSP B5D1-3 4.5 23:37:18 10° NNE 23:42:23 71° ESE 23:47:26 10° S
Cosmos 2333 Rocket 3.5 23:37:13 10° SW 23:42:44 46° WNW 23:48:17 10° NNE
TSX-5 3.8 23:42:48 10° NNW 23:45:46 38° ENE 23:48:51 10° SE
Cosmos 1400 Rocket 3.1 23:42:15 10° N 23:45:55 42° ENE 23:49:31 10° SSE
Cosmos 1898 Rocket 4.5 23:41:08 10° NNW 23:46:16 51° WSW 23:51:20 10° S
Meteor 1-4 Rocket 3.2 23:48:20 10° NNE 23:50:26 20° ENE 23:51:52 14° ESE
Meteor 1-5 Rocket 4.5 23:45:24 10° SSW 23:51:01 78° W 23:56:53 10° N
SPOT 1/Viking Rocket 3.5 23:48:36 10° SSE 23:53:46 73° ENE 23:58:55 10° N
